Regional Weather Roundup
Issued by NWS

Home | Current Version | Previous Version | Text Only | Print | Product List | Glossary On
Versions: 1 2 3 4 5 6 7 8 9 10 11 12 13 14 15 16 17 18 19 20 21 22 23 24 25 26 27 28 29 30 31 32 33 34 35 36 37 38 39 40 41 42 43 44 45 46 47 48 49 50
000
ASUS42 KTBW 050617
RWRFL
FLORIDA REGIONAL WEATHER ROUNDUP
NATIONAL WEATHER SERVICE TAMPA BAY RUSKIN FL
200 AM EDT SUN JUL 05 2015

NOTE: "FAIR" INDICATES FEW OR NO CLOUDS BELOW 12,000 FEET WITH NO
SIGNIFICANT WEATHER AND/OR OBSTRUCTIONS TO VISIBILITY.


FLZ001>010-012>015-112-114-115-050700-
PANHANDLE FLORIDA

CITY           SKY/WX    TMP DP  RH WIND       PRES   REMARKS
PENSACOLA      MOCLDY    75  72  90 NE5       30.09F
PENSACOLA NAS  MOCLDY    76  71  85 CALM      30.08F HAZE
MILTON NAS     MOCLDY    71  69  93 CALM      30.10
CRESTVIEW      MOCLDY    71  70  96 CALM      30.11F
DUKE FIELD     FAIR      72  69  91 N2        30.09F
VALPARAISO     PTCLDY    73  69  89 N1        30.09F
MARY ESTHER    CLOUDY    73  69  87 NW2       30.08F
TRI COUNTY     FAIR      69  69 100 CALM      30.11F
PANAMA CITY    FAIR      72  70  93 CALM      30.09S
TYNDALL AFB    PTCLDY    78  73  83 NE3       30.09S
APALACHICOLA   CLEAR     80  75  84 CALM      30.08F

STATION/POSITION SKY/WX   TEMP    WIND        PRES    WAVE   SWELL
                          AIR SEA DIR/SP/G            HT/PER HT/PER
                          (F)     (DEG/KT/KT) (MB)    (FT/S) (FT/S)
30.1N   87.6W              82 83  190/  6/  6 1018.1F   1/ 3   2/ 5
29.2N   88.2W              83 86  150/ 10/ 14 1018.9F   2/ 5   2/ 5
28.8N   86.0W              84 85  150/ 10/ 12 1019.0F   2/ 6   2/ 6
PANAMA CITY BEAC           78 83   70/  6/  8 1018.8F
CAPE SAN BLAS    NOT AVBL
TOWER C                    82     190/  6/  7 1018.9F
28.5N   84.5W              85 86  310/  2/  2 1019.9F   1/ 4   2/ 4

$$
FLZ011-016>038-118-127-128-134-139-239-050700-
NORTH FLORIDA

CITY           SKY/WX    TMP DP  RH WIND       PRES   REMARKS
MARIANNA       PTCLDY    71  71 100 CALM      30.11S
TALLAHASSEE    CLEAR     74  71  91 SE3       30.10F
PERRY            N/A     74  74 100 CALM      30.12F
CROSS CITY       N/A     75  71  87 CALM      30.13S
LAKE CITY      FAIR      70  70 100 CALM      30.14F
GAINESVILLE    PTCLDY    71  70  96 CALM      30.14F
MAYPORT NAS    PTCLDY    74  71  91 S3        30.12F FOG
JACKSONVILLE   PTCLDY    71  70  96 CALM      30.12F FOG
JAX NAS        PTCLDY    78  73  84 W3        30.13F HAZE
JAX CRAIG      PTCLDY    72  69  90 CALM      30.13F FOG
JAX CECIL      PTCLDY    68  68 100 CALM      30.13F FOG
FERNANDINA BEA FAIR      75  72  88 SE3       30.11F
ST AUGUSTINE   PTCLDY    75  72  90 S3        30.14F

STATION/POSITION SKY/WX   TEMP    WIND        PRES    WAVE   SWELL
                          AIR SEA DIR/SP/G            HT/PER HT/PER
                          (F)     (DEG/KT/KT) (MB)    (FT/S) (FT/S)
SHELL POINT                76     340/  3/  4   N/A
KEATON BEACH               78     100/  6/  7 1019.6F
CEDAR KEY                  84     180/  9/ 10 1020.4F
FERNANDINA                 75 79  180/  2/  3 1019.9R
30.7N   81.3W                 78                N/A     2/10
MAYPORT                    76 75  170/  3/  4 1020.9R
31.4N   80.9W              78 79  230/ 10/ 12 1019.9F   2/10   2/10
ST AUGUSTINE               76 72  190/  5/  5 1021.2F

$$
FLZ040-043>046-052-053-057-058-063-144-050700-
INTERIOR CENTRAL FLORIDA

CITY           SKY/WX    TMP DP  RH WIND       PRES   REMARKS
OCALA          PTCLDY    72  68  88 CALM      30.15S
THE VILLAGES     N/A    N/A N/A N/A CALM      30.05F
LEESBURG       PTCLDY    74  71  91 CALM      30.15F
SANFORD        MOCLDY    79  74  84 CALM      30.14S HAZE
ORLANDO EXEC   MOCLDY    80  76  87 S3        30.14S
ORLANDO INTL   CLOUDY    77  75  93 CALM      30.14F
WINTER HAVEN   MOCLDY    77  72  84 SW5       30.15F
LAKELAND       MOCLDY    73  70  88 MISG      30.14F
OKEECHOBEE     MOCLDY    72  72 100 CALM      30.14F FOG

$$
FLZ041-047-054-059-064-141-147-050700-
EAST CENTRAL FLORIDA

CITY           SKY/WX    TMP DP  RH WIND       PRES   REMARKS
DAYTONA BEACH  MOCLDY    75  73  93 CALM      30.15S FOG
DELAND           N/A     73  73 100 CALM      30.15F
JFK SPACE CTR  MOCLDY    73  72  94 E3        30.12F
CAPE CANAVERAL MOCLDY    76  75  96 SE3       30.12F
PATRICK AFB    MOCLDY    79  77  93 W2        30.13F
MELBOURNE      MOCLDY    75  74  96 W5        30.14F
VERO BEACH     PTCLDY    77  73  87 CALM      30.14S
FT PIERCE      PTCLDY    76  74  93 CALM      30.13F
STUART         PTCLDY    79  73  83 CALM      30.14S

STATION/POSITION SKY/WX   TEMP    WIND        PRES    WAVE   SWELL
                          AIR SEA DIR/SP/G            HT/PER HT/PER
                          (F)     (DEG/KT/KT) (MB)    (FT/S) (FT/S)
28.5N   80.2W              82 81  160/  8/  8 1020.9F
28.9N   78.5W              83 84  160/ 10/ 14 1021.2S
TRIDENT PIER               77 78   CALM  /  1 1021.4S
28.4N   80.5W                 80                N/A     2/ 8
27.5N   80.2W                 81                N/A     1/ 8

$$
FLZ050-056-061-142-242-148-248-149-249-151-251-155-255-
160-260-050700-
WEST CENTRAL FLORIDA

CITY           SKY/WX    TMP DP  RH WIND       PRES   REMARKS
CRYSTAL RIVER  FAIR      72  70  94 CALM      30.14S
INVERNESS      FAIR     N/A N/A N/A CALM      30.14S HAZE
BROOKSVILLE    PTCLDY    73  70  90 SE3       30.15F
ZEPHYRHILLS    FAIR      70  70 100 CALM      30.14F
CLEARWATER     PTCLDY    78  74  87 CALM      30.13F
TAMPA INTL     MOCLDY    78  73  84 CALM      30.13F HAZE
TAMPA EXEC     PTCLDY   N/A N/A N/A CALM      30.14F FOG
PLANT CITY     MOCLDY    75  75 100 CALM      30.15F
MACDILL AFB    PTCLDY    77  77 100 E6        30.12F
PETER O KNIGHT PTCLDY    81  73  78 E5        30.13F
ST PETERSBURG  CLEAR     82  73  74 SE7       30.11F
SARASOTA       CLEAR     75  71  87 E3        30.12S
VENICE         FAIR      77  72  83 E7        30.14S

STATION/POSITION SKY/WX   TEMP    WIND        PRES    WAVE   SWELL
                          AIR SEA DIR/SP/G            HT/PER HT/PER
                          (F)     (DEG/KT/KT) (MB)    (FT/S) (FT/S)
CEDAR KEY                  84     180/  9/ 10 1020.4F
28.5N   84.5W              85 86  310/  2/  2 1019.9F   1/ 4   2/ 4
27.3N   84.2W                 87                N/A     2/ 4
CLEARWATER BEACH           80 89  120/  7/ 10 1020.5F
MIDDLE TAMPA BAY                  140/  7/ 10 1020.7F
VENICE                     77 89   70/  5/  8 1020.2S

$$
FLZ066-069-070-075>078-162-262-165-265-050700-
SOUTHWEST FLORIDA AND KEYS

CITY           SKY/WX    TMP DP  RH WIND       PRES   REMARKS
PUNTA GORDA    CLEAR     74  73  97 CALM      30.15S
FT MYERS       CLEAR     76  75  97 CALM      30.12F
SOUTHWEST INTL CLEAR     75  72  90 E3        30.12F
NAPLES         PTCLDY    77  75  93 E6        30.12F
MARCO ISLAND   CLEAR     75  70  83 E5        30.12S
MARATHON       MOCLDY    85  76  74 E9        30.10F
KEY WEST NAS   PTCLDY    84  74  71 E15       30.10F
KEY WEST INTL  PTCLDY    85  77  77 E13       30.11F HX  95

STATION/POSITION SKY/WX   TEMP    WIND        PRES    WAVE   SWELL
                          AIR SEA DIR/SP/G            HT/PER HT/PER
                          (F)     (DEG/KT/KT) (MB)    (FT/S) (FT/S)
VENICE                     77 89   70/  5/  8 1020.2S
NAPLES                        88              1021.0F
26.0N   85.6W              85 86  100/  8/ 10 1019.1F   3/ 9   3/ 9
DRY TORTUGAS               85     120/ 13/ 14 1019.5R
NW FL BAY                  86     110/  9/ 11 1020.3
SAND KEY                   84     100/ 13/ 15 1019.3F
SOMBRERO KEY               84      90/ 12/ 13 1020.1F
LONG KEY                   85 88  140/  9/ 11 1020.2F
MOLASSES REEF              84 86  110/  5/  5 1019.6F

$$
FLZ067-068-071>074-168-172>174-050700-
SOUTHEAST FLORIDA

CITY           SKY/WX    TMP DP  RH WIND       PRES   REMARKS
W PALM BEACH   MOCLDY    82  75  79 SE6       30.13F
FT LAUDER-EXEC CLEAR     84  76  76 E9        30.12F
FT LAUDERDALE  MOCLDY    84  76  76 SE8       30.12F
POMPANO BEACH  PTCLDY    84  76  76 E10       30.12F
PEMBROKE PINES CLEAR     84  74  71 E6        30.13F
OPA LOCKA      PTCLDY    84  75  74 E6        30.12F
MIAMI          PTCLDY    84  74  71 E12       30.12F
WEST KENDALL   PTCLDY    82  75  79 E8        30.12F
HOMESTEAD      PTCLDY    84  75  74 E12       30.10F

STATION/POSITION SKY/WX   TEMP    WIND        PRES    WAVE   SWELL
                          AIR SEA DIR/SP/G            HT/PER HT/PER
                          (F)     (DEG/KT/KT) (MB)    (FT/S) (FT/S)
PORT EVERGLADES            85     100/  4/  9 1020.4F
VIRGINIA KEY               85 88  100/ 10/ 12 1020.1R
LAKE WORTH                 84 85  120/  9/ 10 1020.2F
SETTLEMENT POINT           81     130/  6/  8 1021.2F

$$



USA.gov is the U.S. government's official web portal to all federal, state and local government web resources and services.